Volver al catálogo

CZ-6A DEB

ActivoPO
NORAD 61434·DEBRIS·🇨🇳 China

Lanzado Aug 6, 2024 desde Taiyuan Satellite Launch Center

Loading…

Próximos Pases (próximas 24 horas)

TLE

ActualizadoSource: Space-Track

Época: Sep 14, 2026, 00:07 UTC

1 61434U 24140ZB  26257.00554962  .00026946  00000-0  12425-2 0  9995
2 61434  89.0395 259.7822 0077660 147.9834 212.6164 15.17418248112323

Sigue CZ-6A DEB en tiempo real con AllMySat

Download on the App Store